Date String (YYYY-MM-DD hh:mm:ss) UTC,Instrument flags,absolute air pressure of the measurement (hPa),sample flow rate (lpm),inlet stack bypass flow (lpm),air temperature of the measurement (°C),ambient temperature measured by the external sensor (°C),aerosol sample conditioner tube jacket temperature (°C),OPC LED temperature (°C),internal box temperature (°C),relative humidity of the measurement (%),span deviation,mass concentration of particles derived from Lorenz-Mie calculation of OPC scattering (μg/m³),mass concentration of particles derived from Lorenz-Mie calculation of OPC scattering (μg/m³),mass concentration of particles derived from Lorenz-Mie calculation of OPC scattering (μg/m³)
DateTimeUTC,F1_M11,P_M11,Q1_M11,Q2_M11,T1_M11,T2_M11,T3_M11,T4_M11,T5_M11,U1_M11,ZSPAN_M11,X0_M11,X2_M11,X1_M11
2023-11-26 04:00:00,SystemResetWarning,0829.3,5.00,000.00,018.8,018.0,000.0,027.2,020.0,13.2,0000.7,0008.81,0005.64,0005.45
2023-11-26 04:01:00,SystemResetWarning,0829.3,4.99,000.00,018.8,017.9,000.0,027.2,020.0,13.2,0001.1,0008.80,0005.63,0005.43
2023-11-26 04:02:00,SystemResetWarning,0829.3,5.00,000.00,018.8,017.8,000.0,027.2,020.0,13.2,0001.2,0008.77,0005.61,0005.40
2023-11-26 04:03:00,SystemResetWarning,0829.4,5.01,000.00,018.8,017.8,000.0,027.3,020.0,13.3,0001.1,0008.69,0005.58,0005.37
2023-11-26 04:04:00,SystemResetWarning,0829.3,5.01,000.00,018.7,017.7,000.0,027.3,020.0,13.3,0001.8,0008.66,0005.55,0005.34
2023-11-26 04:05:00,SystemResetWarning,0829.4,5.00,000.00,018.7,017.7,000.0,027.3,020.0,13.3,0002.5,0008.14,0005.53,0005.33
2023-11-26 04:06:00,SystemResetWarning,0829.3,5.00,000.00,018.7,017.6,000.0,027.3,020.0,13.3,0002.3,0008.18,0005.53,0005.34
2023-11-26 04:07:00,SystemResetWarning,0829.3,5.00,000.00,018.7,017.6,000.0,027.3,020.0,13.3,0002.2,0008.10,0005.50,0005.34
2023-11-26 04:08:00,SystemResetWarning,0829.3,4.99,000.00,018.7,017.5,000.0,027.2,020.0,13.3,0002.7,0007.84,0005.52,0005.34
2023-11-26 04:09:00,SystemResetWarning,0829.2,4.99,000.00,018.7,017.6,000.0,027.2,020.2,13.3,0003.1,0007.73,0005.54,0005.35
2023-11-26 04:10:00,SystemResetWarning,0829.3,5.01,000.00,018.8,018.3,000.0,027.2,020.6,13.3,0003.2,0007.69,0005.53,0005.35
2023-11-26 04:11:00,SystemResetWarning,0829.3,5.01,000.00,019.0,019.0,000.0,027.2,020.8,13.2,0003.2,0007.60,0005.51,0005.36
2023-11-26 04:12:00,SystemResetWarning,0829.2,4.99,000.00,019.0,018.9,000.0,027.2,020.4,13.1,0003.4,0007.54,0005.47,0005.34
2023-11-26 04:13:00,SystemResetWarning,0829.2,4.98,000.00,018.9,018.8,000.0,027.2,020.1,13.2,0003.5,0007.48,0005.43,0005.32
2023-11-26 04:14:00,SystemResetWarning,0829.2,5.00,000.00,018.9,018.6,000.0,027.2,020.0,13.2,0001.5,0007.49,0005.43,0005.32
2023-11-26 04:15:00,SystemResetWarning,0829.1,5.00,000.00,018.8,018.4,000.0,027.2,020.0,13.2,0003.2,0007.55,0005.45,0005.33
2023-11-26 04:16:00,SystemResetWarning,0829.2,5.01,000.00,018.8,018.2,000.0,027.2,020.0,13.2,0000.6,0007.64,0005.47,0005.33
2023-11-26 04:17:00,SystemResetWarning,0829.2,5.00,000.00,018.8,018.1,000.0,027.3,020.0,13.2,0000.0,0007.60,0005.46,0005.32
2023-11-26 04:18:00,SystemResetWarning,0829.2,5.01,000.00,018.8,018.0,000.0,027.3,020.0,13.2,0000.6,0007.61,0005.48,0005.32
2023-11-26 04:19:00,SystemResetWarning,0829.3,5.00,000.00,018.8,017.9,000.0,027.3,020.0,13.3,0000.0,0007.63,0005.47,0005.32
2023-11-26 04:20:00,SystemResetWarning,0829.3,5.00,000.00,018.8,017.8,000.0,027.3,020.0,13.2,0000.0,0007.58,0005.45,0005.30
2023-11-26 04:21:00,SystemResetWarning,0829.3,5.00,000.00,018.7,017.7,000.0,027.3,020.0,13.2,0000.0,0007.64,0005.46,0005.29
2023-11-26 04:22:00,SystemResetWarning,0829.4,5.00,000.00,018.7,017.6,000.0,027.3,020.0,13.2,0000.0,0007.70,0005.46,0005.27
2023-11-26 04:23:00,SystemResetWarning,0829.4,5.00,000.00,018.7,017.6,000.0,027.3,020.0,13.2,0000.0,0007.72,0005.45,0005.25
2023-11-26 04:24:00,SystemResetWarning,0829.4,4.99,000.00,018.7,017.5,000.0,027.3,020.0,13.2,0000.0,0007.81,0005.46,0005.23
2023-11-26 04:25:00,SystemResetWarning,0829.4,5.00,000.00,018.7,017.5,000.0,027.3,020.0,13.2,0001.5,0007.77,0005.44,0005.21
2023-11-26 04:26:00,SystemResetWarning,0829.3,5.00,000.00,018.7,017.4,000.0,027.3,020.0,13.1,0000.0,0007.72,0005.41,0005.18
2023-11-26 04:27:00,SystemResetWarning,0829.4,5.01,000.00,018.8,017.8,000.0,027.2,020.3,13.0,0001.3,0007.64,0005.38,0005.17
2023-11-26 04:28:00,SystemResetWarning,0829.3,5.01,000.00,018.9,018.7,000.0,027.2,020.7,12.9,0000.2,0007.62,0005.39,0005.18
2023-11-26 04:29:00,SystemResetWarning,0829.4,4.99,000.00,019.0,019.0,000.0,027.2,020.6,12.9,0000.0,0007.61,0005.38,0005.17
2023-11-26 04:30:00,SystemResetWarning,0829.4,4.99,000.00,018.9,018.8,000.0,027.2,020.1,12.9,0000.0,0007.58,0005.36,0005.17
2023-11-26 04:31:00,SystemResetWarning,0829.3,5.00,000.00,018.9,018.6,000.0,027.2,020.0,12.9,0000.0,0007.56,0005.35,0005.15
2023-11-26 04:32:00,SystemResetWarning,0829.3,5.00,000.00,018.8,018.4,000.0,027.2,020.0,12.9,0000.1,0007.50,0005.32,0005.13
2023-11-26 04:33:00,SystemResetWarning,0829.4,5.00,000.00,018.8,018.3,000.0,027.2,020.0,12.9,0001.2,0007.42,0005.28,0005.12
2023-11-26 04:34:00,SystemResetWarning,0829.4,5.00,000.00,018.8,018.1,000.0,027.2,020.0,12.9,0000.0,0007.44,0005.27,0005.11
2023-11-26 04:35:00,SystemResetWarning,0829.4,5.01,000.00,018.8,018.0,000.0,027.2,020.0,13.0,0000.0,0007.38,0005.25,0005.11
2023-11-26 04:36:00,SystemResetWarning,0829.4,5.00,000.00,018.8,017.9,000.0,027.2,020.0,13.0,0000.0,0007.40,0005.25,0005.10
2023-11-26 04:37:00,SystemResetWarning,0829.4,5.00,000.00,018.8,017.8,000.0,027.2,020.0,13.0,0000.0,0007.40,0005.24,0005.09
2023-11-26 04:38:00,SystemResetWarning,0829.3,5.00,000.00,018.7,017.7,000.0,027.2,020.0,13.0,0000.0,0007.46,0005.25,0005.09
2023-11-26 04:39:00,SystemResetWarning,0829.3,4.99,000.00,018.7,017.7,000.0,027.2,020.0,13.0,0000.0,0007.47,0005.21,0005.04
2023-11-26 04:40:00,SystemResetWarning,0829.4,4.99,000.00,018.7,017.7,000.0,027.2,020.0,13.0,0000.0,0007.43,0005.16,0005.00
2023-11-26 04:41:00,SystemResetWarning,0829.4,5.01,000.00,018.7,017.7,000.0,027.2,020.0,13.0,0000.0,0007.39,0005.14,0004.98
2023-11-26 04:42:00,SystemResetWarning,0829.4,5.00,000.00,018.7,017.6,000.0,027.2,020.0,13.0,0000.0,0007.37,0005.12,0004.96
2023-11-26 04:43:00,SystemResetWarning,0829.4,5.00,000.00,018.7,017.6,000.0,027.2,020.0,13.1,0000.0,0007.44,0005.11,0004.95
2023-11-26 04:44:00,SystemResetWarning,0829.3,5.01,000.00,018.7,017.9,000.0,027.1,020.3,13.1,0000.0,0007.52,0005.10,0004.93
2023-11-26 04:45:00,SystemResetWarning,0829.4,5.01,000.00,018.9,018.7,000.0,027.1,020.7,13.0,0000.0,0007.54,0005.10,0004.92
2023-11-26 04:46:00,SystemResetWarning,0829.4,4.99,000.00,019.0,019.1,000.0,027.2,020.7,12.9,0000.0,0007.48,0005.07,0004.91
2023-11-26 04:47:00,SystemResetWarning,0829.3,4.99,000.00,018.9,018.9,000.0,027.2,020.3,12.9,0000.0,0007.44,0005.06,0004.91
2023-11-26 04:48:00,SystemResetWarning,0829.3,5.00,000.00,018.9,018.8,000.0,027.2,020.2,12.9,0000.0,0007.46,0005.06,0004.90
2023-11-26 04:49:00,SystemResetWarning,0829.4,5.01,000.00,018.9,018.6,000.0,027.2,020.0,12.9,0000.0,0007.47,0005.04,0004.88
2023-11-26 04:50:00,SystemResetWarning,0829.4,5.00,000.00,018.8,018.4,000.0,027.2,020.0,12.9,0000.0,0007.45,0005.06,0004.89
2023-11-26 04:51:00,SystemResetWarning,0829.3,5.00,000.00,018.8,018.3,000.0,027.2,020.0,12.9,0002.1,0007.48,0005.06,0004.89
2023-11-26 04:52:00,SystemResetWarning,0829.3,5.01,000.00,018.8,018.2,000.0,027.2,020.0,12.9,0001.8,0007.50,0005.06,0004.88
2023-11-26 04:53:00,SystemResetWarning,0829.4,5.01,000.00,018.8,018.1,000.0,027.2,020.0,12.9,0001.8,0007.50,0005.06,0004.88
2023-11-26 04:54:00,SystemResetWarning,0829.4,5.01,000.00,018.8,018.0,000.0,027.2,020.0,12.8,0002.1,0007.38,0005.03,0004.86
2023-11-26 04:55:00,SystemResetWarning,0829.4,5.00,000.00,018.8,017.9,000.0,027.2,020.0,12.8,0001.5,0007.28,0005.01,0004.84
2023-11-26 04:56:00,SystemResetWarning,0829.3,5.00,000.00,018.8,017.9,000.0,027.2,020.0,12.8,0001.9,0007.18,0004.99,0004.81
2023-11-26 04:57:00,SystemResetWarning,0829.4,5.00,000.00,018.7,017.9,000.0,027.2,020.0,12.8,0001.6,0007.16,0004.97,0004.78
2023-11-26 04:58:00,SystemResetWarning,0829.4,5.00,000.00,018.7,017.8,000.0,027.2,020.0,12.7,0001.4,0007.15,0004.95,0004.74
2023-11-26 04:59:00,SystemResetWarning,0829.4,5.01,000.00,018.7,017.8,000.0,027.2,020.0,12.7,0000.9,0007.06,0004.91,0004.71
